Weather Roundup
Issued by NWS Corpus Christi, TX

Home | Current Version | Previous Version | Text Only | Print | Product List | Glossary On
Versions: 1 2 3 4 5 6 7 8 9 10 11 12 13 14 15 16 17 18 19 20 21 22 23 24 25 26 27 28 29 30 31 32 33 34 35 36 37 38 39 40 41 42 43 44 45 46 47 48 49 50
569
ASUS44 KCRP 310710
HRRCRP

SOUTH TEXAS REGIONAL WEATHER ROUNDUP
NATIONAL WEATHER SERVICE CORPUS CHRISTI TX
200 AM CDT SUN JUL 31 2016


TXZ229>244-310800-
...CORPUS CHRISTI AREA OBSERVATIONS...

CITY           SKY/WX    TMP DP  RH WIND       PRES   REMARKS
CORPUS CHRISTI PTCLDY    82  78  88 S8        29.98R HX  91
NAS CORPUS CHR   N/A    N/A N/A N/A MISG      29.98R
ROCKPORT       MOCLDY    84  76  76 S9G18     29.97S HX  93
KINGSVILLE NAS CLEAR     80  79  96 S9        29.98S
ALICE          PTCLDY    79  76  90 SE8       29.98S
FALFURRIAS     PTCLDY    79  74  85 SE5       29.97F
$$

...VICTORIA AREA OBSERVATIONS...

CITY           SKY/WX    TMP DP  RH WIND       PRES   REMARKS
VICTORIA       PTCLDY    76  74  93 E3        30.00R
BEEVILLE       FAIR      79  78  99 S8        29.99R
PLEASANTON     CLEAR     79  72  80 SE7       29.98S
SAN ANTONIO    PTCLDY    79  72  79 SE12      30.01R
$$

...LAREDO AREA OBSERVATIONS...

CITY           SKY/WX    TMP DP  RH WIND       PRES   REMARKS
LAREDO         CLEAR     82  73  74 SE13      29.96S
COTULLA        CLEAR     82  72  71 SE12      29.97R
DEL RIO        PTCLDY    85  66  53 SE9       29.94R
MCALLEN        PTCLDY    84  75  74 SE12      29.98S HX  92
HEBBRONVILLE   CLEAR     79  73  82 SE7       30.00S
$$

...OTHER TEXAS OBSERVATIONS...

CITY           SKY/WX    TMP DP  RH WIND       PRES   REMARKS
BROWNSVILLE    CLEAR     81  75  82 S8        29.99S
HOUSTON        PTCLDY    81  76  84 CALM      29.99S
COL. STATION   PTCLDY    80  76  87 S8        29.99S
AUSTIN         PTCLDY    78  75  90 S6        30.00R
WACO           CLEAR     83  72  69 S18       29.96S
FORT WORTH     PTCLDY    85  68  56 S12       29.93S
WICHITA FALLS  CLEAR     80  65  59 S9        29.91F
LUBBOCK        CLEAR     75  59  57 SE8       30.03S
EL PASO        PTCLDY    83  55  38 SE9       30.01S
$$

...MARINE OBSERVATIONS...

STATION/POSITION TIME  SKY/WX   TEMP    WIND        PRES    VSBY  WAVE   SWELL
                                AIR SEA DIR/SP/G                  HT/PER HT/PER
                 (UTC)          (F)     (DEG/KT/KT) (MB)    (MI)  (FT/S) (FT/S)
PORT ARANSAS     0700            84 88  150/ 15/ 17 1015.2S
BUOY 90 E PORT A 0650            86 86  150/ 12/ 14 1015.7R         2/ 8   2/ 8
BUOY 45 SE BAFFI 0650            85 85  160/ 17/ 19 1014.7S         3/ 5
BUOY 200 E PT IS 0650            86 87  140/  8/ 12 1015.2F         2/ 5   2/ 5
BUOY 15 E GALVES 0650            85 87  210/ 10/ 12 1015.6F         2/ 3   2/ 6
$$




USA.gov is the U.S. government's official web portal to all federal, state and local government web resources and services.